Hourly Data Report for September 25, 2017

All times are specified in Local Standard Time (LST). Add 1 hour to adjust for Daylight Saving Time where and when it is observed.

ENNADAI LAKE (AUT)
NUNAVUT

61°07'55.000" N
100°53'02.000" W
353.10 m
2301102
71923
WJC

Download Data

Hourly Data (September 2017)
Hourly Data Report for September 25, 2017
Temp Definition
°C
Dew Point Temp Definition
°C
Rel Hum Definition
%
Wind Dir Definition
10's deg

Wind Spd Definition
km/h
Visibility Definition
km
Stn Press Definition
kPa
Hmdx Definition


Wind Chill Definition


Weather Definition


TIME
00:00 1.2 -0.3 90 14 12   97.65     LegendNANA
01:00 2.4 0.6 88 14 11   97.63     LegendNANA
02:00 3.1 0.9 85 17 19   97.60     LegendNANA
03:00 2.9 1.2 89 14 13   97.58     LegendNANA
04:00 2.3 0.9 90 16 17   97.56     LegendNANA
05:00 0.5 -0.3 95 14 13   97.53     LegendNANA
06:00 0.1 -0.5 96 14 15   97.52     LegendNANA
07:00 0.9 0.3 96 15 17   97.49     LegendNANA
08:00 2.5 1.3 92 14 14   97.49     LegendNANA
09:00 5.2 2.9 86 16 19   97.45     LegendNANA
10:00 6.7 3.2 78 16 25   97.39     LegendNANA
11:00 9.0 3.7 69 17 27   97.36     LegendNANA
12:00 9.2 3.4 67 18 29   97.32     LegendNANA
13:00 9.8 3.7 66 18 29   97.30     LegendNANA
14:00 11.1 3.7 61 17 37   97.25     LegendNANA
15:00 11.4 3.6 59 18 34   97.24     LegendNANA
16:00 11.7 3.7 58 18 32   97.22     LegendNANA
17:00 10.7 4.0 63 17 24   97.21     LegendNANA
18:00 8.5 4.0 73 18 30   97.18     LegendNANA
19:00 8.1 4.2 77 17 31   97.17     LegendNANA
20:00 7.7 4.3 79 18 27   97.20     LegendNANA
21:00 7.5 4.3 80 17 27   97.17     LegendNANA
22:00 7.1 4.2 82 17 27   97.14     LegendNANA
23:00 6.7 4.0 83 18 32   97.11     LegendNANA

Notes on Data Quality.

Legend

  • E = Estimated
  • M = Missing
  • NA = Not Available
  • ‡ = Partner data that is not subject to review by the National Climate Archives
Date modified: